Theta_e
306 306 307 307 306 306 306 307 306 307 308 311 313 313 314 315 318 319 321 322 323 323 323 323 324 325 325 326 327 327 327 328 328 328 328 328 327 325 323 323 320 318 317 318 316 315 314 312 312 313 312 312 311 310 308 307 307 305 303 304 305 306
306 307 307 307 307 306 305 305 306 306 307 307 308 311 314 316 318 318 317 318 319 321 322 323 324 324 325 326 326 326 326 326 325 325 324 324 325 324 321 318 316 314 313 312 313 312 310 309 307 309 310 311 311 308 305 304 303 300 299 298 299 299
306 307 308 308 306 305 305 305 306 307 307 306 307 308 309 310 313 316 315 315 316 317 318 320 322 323 324 324 325 324 324 325 323 323 324 322 320 319 317 315 313 312 311 310 308 306 305 306 305 306 307 308 306 303 302 299 300 300 297 297 296 296
306 308 307 306 305 304 303 304 305 306 307 308 308 308 309 309 310 310 312 313 314 315 316 317 319 320 321 321 321 320 321 321 320 320 319 318 315 314 314 313 312 310 310 309 307 305 304 305 306 304 305 303 301 300 301 297 298 298 295 294 293 293
306 307 307 307 306 307 306 306 306 307 308 308 308 308 309 309 310 310 310 310 310 311 313 314 316 317 317 318 318 317 318 318 317 316 316 314 311 309 311 310 309 309 308 307 305 305 303 304 303 301 302 301 301 300 298 297 297 297 294 292 291 291
305 304 304 306 306 306 307 307 307 307 307 307 307 307 308 308 308 309 309 309 309 310 310 311 313 314 313 314 314 314 315 313 312 310 312 311 308 307 306 308 308 307 306 305 303 303 301 300 300 299 300 300 299 299 299 296 295 295 293 291 290 290
303 304 306 308 309 308 308 307 307 306 306 306 306 307 308 308 309 309 308 308 308 308 309 309 310 311 310 311 310 310 309 307 306 305 308 306 305 306 304 303 303 304 303 303 302 301 300 300 299 299 298 298 298 298 297 294 294 292 291 290 290 289
306 307 307 309 309 309 308 307 307 306 306 306 307 306 307 308 308 307 306 306 306 306 306 307 308 308 309 308 307 306 305 304 304 304 303 304 305 302 301 302 299 300 300 299 299 299 298 298 297 297 296 295 295 295 294 293 291 291 290 289 289 289
306 307 307 308 308 308 307 307 306 306 305 305 306 306 306 307 307 306 305 305 305 304 305 306 306 307 307 306 305 304 302 302 299 299 300 298 300 299 298 297 297 296 297 298 297 297 295 295 294 294 294 294 294 293 291 290 290 289 288 288 288 288
309 308 308 307 307 306 306 306 307 306 305 305 305 305 305 306 306 306 305 305 304 304 304 305 304 303 303 302 301 299 298 297 295 296 295 294 295 295 295 296 296 295 296 297 297 297 295 294 294 293 293 292 292 291 290 289 288 288 287 287 287 287
311 311 309 308 306 304 304 304 304 305 306 306 306 305 304 305 305 305 305 305 303 304 304 303 301 300 298 296 297 296 295 294 293 292 292 293 293 295 293 294 295 295 294 293 293 293 293 293 293 292 291 291 290 289 289 288 287 287 286 286 286 286
311 313 310 306 305 305 304 304 303 304 304 304 305 305 304 304 304 304 305 304 304 305 303 298 298 298 296 296 295 293 292 292 292 292 292 292 292 292 292 293 293 294 294 293 292 292 292 292 292 289 290 290 289 289 288 288 287 286 286 285 285 285
311 310 308 307 305 305 305 305 305 304 304 304 304 304 304 304 303 303 304 304 304 303 299 297 295 294 293 295 295 294 292 292 292 291 291 291 291 291 291 292 292 292 292 292 291 291 291 291 290 289 291 291 291 289 288 287 287 286 286 285 284 284
310 309 309 310 309 307 305 305 304 303 303 304 304 304 304 303 303 303 303 303 304 302 298 296 294 293 293 293 293 293 293 292 292 291 291 290 290 289 289 290 291 292 291 291 290 290 290 290 289 290 291 291 291 289 288 287 286 286 285 285 285 284
307 307 307 309 311 308 306 305 304 303 303 303 304 304 302 301 301 302 302 300 299 299 298 296 295 294 294 293 293 293 291 289 289 290 289 289 289 290 289 290 290 290 290 290 290 290 290 289 289 290 291 291 290 290 288 287 286 286 285 285 285 284
307 306 307 309 309 306 306 305 304 304 303 303 303 302 301 300 300 301 300 298 297 297 297 297 296 294 294 293 292 292 291 289 289 289 290 289 288 288 289 289 289 289 289 289 289 289 288 288 288 290 290 290 290 290 289 287 286 286 285 285 285 284
306 307 305 304 303 304 303 302 302 302 300 301 300 300 301 300 300 300 299 298 298 297 295 295 295 294 293 292 290 289 289 290 289 288 288 287 287 287 287 288 288 288 287 288 288 288 287 287 288 290 290 290 290 290 289 287 287 286 285 285 285 284
304 303 303 305 304 303 302 302 301 299 299 299 299 299 299 299 298 299 299 298 297 296 295 294 294 294 294 291 289 288 288 288 288 287 288 287 288 287 287 287 287 286 286 287 287 287 287 287 289 289 289 290 290 290 287 287 286 285 285 284 284 284
304 303 304 303 303 303 302 301 299 298 297 297 298 297 297 297 297 298 298 297 298 296 295 294 293 292 292 290 289 288 288 288 288 287 287 287 287 286 287 286 287 287 287 287 287 287 287 287 288 289 289 289 290 289 286 285 285 284 284 283 283 283
300 301 302 300 300 301 300 299 297 297 296 295 296 296 296 295 296 297 297 297 297 296 295 295 294 290 289 288 288 288 288 288 288 287 287 287 287 286 286 287 286 287 287 286 287 287 287 287 287 288 289 289 289 287 285 285 285 283 283 282 282 282
298 298 298 299 298 299 298 297 296 296 295 295 295 295 295 294 295 295 296 297 297 296 296 295 293 291 289 289 288 288 288 287 287 287 286 287 287 286 286 286 286 286 286 286 286 286 286 286 286 288 289 289 289 287 285 285 284 283 282 281 281 281
295 295 295 296 297 297 295 295 295 293 295 294 295 294 294 295 295 296 297 297 297 296 295 295 290 290 289 288 288 288 288 287 286 286 286 286 286 286 286 286 286 285 286 286 286 286 286 286 286 286 288 288 288 287 285 285 284 282 282 281 281 280
296 295 295 296 297 295 295 294 294 293 294 294 293 292 294 295 296 296 296 297 297 295 294 293 290 288 288 288 288 288 287 287 286 286 286 286 286 286 285 285 285 285 285 286 286 286 286 286 285 285 288 288 288 287 286 284 284 283 282 282 281 281
294 294 294 294 294 294 293 293 293 293 293 293 293 294 294 295 295 295 296 296 295 292 290 290 289 288 288 287 288 287 286 286 286 286 285 286 285 285 285 285 285 285 285 285 286 286 286 286 285 285 286 287 287 287 287 285 284 284 283 282 281 281
293 293 293 292 292 292 292 291 290 290 290 292 291 293 293 293 293 294 294 292 292 289 288 288 288 287 287 287 287 286 286 285 285 285 285 285 285 284 284 284 284 284 284 285 285 285 285 285 285 285 285 286 287 287 286 286 285 286 284 282 281 281
293 292 291 291 291 291 290 289 289 289 289 290 292 291 291 291 291 290 288 288 288 287 287 287 286 287 287 287 286 286 285 284 284 284 284 284 284 283 283 283 283 283 283 283 284 284 285 284 285 285 285 285 286 286 286 286 285 286 283 283 282 282
292 291 290 290 289 290 288 288 288 287 288 289 289 288 288 288 287 287 287 286 286 286 286 286 286 286 286 286 286 286 285 284 284 284 283 283 283 283 283 282 282 282 283 283 283 284 284 284 285 284 284 284 285 286 286 286 285 285 285 283 283 282
289 289 288 288 288 288 287 288 287 286 288 289 288 288 287 286 286 285 285 285 285 285 285 284 284 284 285 285 286 286 286 285 284 284 283 283 283 283 283 282 282 282 282 282 283 283 283 283 283 284 284 284 284 284 285 285 285 284 284 283 282 281
288 288 287 286 286 286 286 286 287 287 287 286 286 286 285 285 285 285 285 285 285 284 283 284 285 284 283 283 285 286 286 286 285 284 283 283 282 282 282 282 282 282 282 282 283 283 283 282 283 283 283 283 283 283 284 284 284 284 283 282 281 281
288 287 287 286 286 286 285 286 285 284 284 285 285 285 285 285 285 285 284 284 284 284 283 284 281 283 284 283 283 284 285 285 284 284 284 283 283 283 282 282 282 282 281 281 282 282 282 281 282 283 283 283 283 283 283 283 283 282 282 281 280 279
287 287 286 285 285 285 284 283 282 282 282 283 283 284 285 284 283 283 282 283 283 283 283 284 283 283 284 283 282 283 284 284 284 284 284 284 285 284 284 283 283 283 283 283 282 282 281 281 281 282 284 284 284 283 283 282 282 282 282 281 281 278
286 286 285 284 284 284 283 281 280 280 280 281 282 284 284 283 283 283 282 282 283 282 282 282 282 282 282 282 282 281 281 281 282 283 283 283 284 284 284 284 284 283 283 282 283 283 282 282 283 285 285 284 284 284 284 283 283 283 282 282 282 279
284 284 283 283 282 282 281 279 279 279 279 279 280 282 283 283 284 284 283 282 282 282 282 282 282 281 281 281 281 281 281 281 281 282 281 282 282 283 283 284 284 283 283 283 282 283 285 285 284 283 284 284 284 284 284 284 284 284 283 283 280 277
284 284 282 282 281 280 279 277 276 276 277 277 279 280 281 282 285 285 284 282 282 280 281 282 281 280 280 281 281 280 281 281 281 281 282 282 282 281 282 282 283 283 283 283 283 282 282 284 284 283 283 283 283 284 284 284 284 284 283 283 281 275
283 282 280 279 279 278 277 276 275 274 274 275 277 278 279 279 281 282 281 281 281 280 280 280 280 280 280 279 279 279 279 279 280 280 281 282 281 281 282 281 282 282 282 283 283 283 283 282 283 284 283 283 283 283 283 284 284 284 284 283 280 276
279 278 277 277 277 276 274 272 272 271 271 273 275 276 277 277 278 279 281 281 280 280 281 280 280 280 280 279 280 280 279 279 279 280 279 279 281 279 280 281 281 281 282 282 283 283 283 283 283 283 283 283 283 283 283 283 283 285 285 283 279 277
276 275 275 275 274 273 272 270 270 270 270 272 273 275 275 275 276 278 274 273 276 280 280 280 280 279 279 279 279 279 279 278 279 278 278 278 278 278 279 280 280 281 281 281 281 282 282 283 283 283 283 283 283 283 283 283 281 280 281 282 281 278
273 273 274 274 274 272 271 270 269 269 269 270 271 273 274 274 275 276 278 277 277 277 278 279 278 279 278 278 278 278 278 278 278 278 278 278 278 278 278 278 279 280 282 282 282 282 282 282 283 283 283 283 283 283 283 279 279 279 279 279 280 279
Wind_Speed
3 4 4 4 3 3 2 2 3 4 4 4 4 6 7 8 7 7 6 7 5 5 8 9 10 11 10 10 9 8 7 8 6 7 5 5 7 6 6 7 7 7 8 8 8 8 8 7 6 7 8 8 7 7 6 6 7 7 6 5 6 6
1 2 4 5 5 4 3 2 1 1 1 2 2 2 1 3 6 6 6 5 6 4 3 4 5 7 8 7 8 9 8 7 7 8 6 7 6 7 8 7 8 8 8 7 8 9 9 9 7 7 8 8 8 7 6 6 6 7 7 6 4 4
2 3 2 3 3 2 2 1 0 1 1 0 1 3 4 4 4 5 6 7 9 9 8 8 7 8 7 9 9 9 9 8 8 8 8 6 7 7 7 8 8 8 8 8 7 8 8 10 10 9 8 7 6 6 6 5 6 7 6 7 7 5
1 2 3 2 2 2 2 3 2 2 2 2 2 2 2 3 4 4 4 6 7 10 10 10 7 7 8 9 9 8 7 7 6 7 6 8 7 7 8 8 7 8 8 9 9 9 10 10 11 9 8 7 7 6 5 6 7 7 7 7 7 7
1 1 2 3 4 4 4 4 3 3 3 3 3 3 3 3 4 4 5 5 6 7 8 9 8 7 7 9 8 8 8 7 6 6 8 7 6 6 7 8 8 9 9 9 10 11 10 10 8 8 9 8 8 8 8 7 8 9 9 8 9 8
1 2 4 4 4 4 5 4 4 3 4 5 5 6 6 6 5 5 5 5 6 6 6 7 8 7 6 7 6 7 6 6 6 5 7 7 6 8 6 7 8 8 9 10 8 8 9 9 8 9 9 10 10 9 10 9 8 7 8 9 10 9
4 5 5 5 5 5 5 5 5 5 5 6 6 6 6 6 6 6 6 7 7 7 7 7 7 7 6 5 4 5 4 4 5 5 6 6 7 7 7 6 5 7 8 8 9 10 10 11 10 10 10 8 8 9 9 9 8 8 9 9 8 8
4 5 5 4 5 5 5 5 5 5 5 7 7 7 6 7 6 6 6 6 7 7 8 8 7 7 6 5 3 3 3 3 4 4 4 5 7 6 6 7 7 8 9 8 9 8 8 9 9 8 9 9 8 8 8 8 8 8 8 7 7 7
5 6 5 5 5 5 5 6 6 6 6 7 8 7 6 6 6 6 6 6 6 6 6 6 6 5 5 4 3 3 3 3 2 3 3 3 4 6 6 5 6 5 7 7 7 7 7 7 8 7 7 9 9 9 9 8 8 7 7 6 6 5
4 5 6 6 5 5 5 6 6 7 7 7 6 7 6 5 6 6 5 5 5 5 5 4 4 3 2 1 1 1 0 0 1 1 1 2 3 4 5 6 7 6 5 6 8 7 6 6 6 7 8 8 9 9 9 9 9 8 7 7 6 5
4 4 5 5 5 6 6 6 6 6 6 5 5 6 7 6 6 5 5 5 5 5 4 3 0 0 0 1 2 1 2 2 2 2 2 3 3 3 3 3 4 5 5 4 4 5 6 7 7 7 9 10 9 9 10 9 9 9 9 8 7 5
5 4 4 3 5 6 6 6 6 7 6 6 6 6 6 6 7 7 6 5 5 4 3 1 1 1 1 2 3 2 2 2 3 3 3 3 3 3 3 4 4 5 6 6 5 5 6 7 6 7 13 13 12 12 10 9 10 10 9 9 8 6
5 4 4 5 6 7 6 5 4 4 5 6 6 6 6 7 7 6 6 6 5 4 3 3 3 3 3 3 3 2 3 4 4 3 3 3 3 3 3 4 6 5 5 6 7 7 7 6 6 12 15 15 16 13 12 12 11 9 9 9 10 9
5 5 5 6 6 5 4 4 4 4 5 5 6 6 5 6 7 7 5 5 4 5 4 3 3 3 3 2 3 3 3 3 3 3 4 4 4 4 4 5 5 6 6 6 6 7 7 6 8 14 14 16 17 14 12 10 10 10 9 9 9 8
4 4 5 4 2 3 5 5 5 5 5 5 5 5 5 6 6 7 7 4 4 4 3 4 3 3 3 3 3 2 2 2 2 3 3 3 3 4 5 6 6 6 6 6 7 7 6 4 9 14 15 15 16 16 12 9 10 10 9 9 9 9
5 5 5 3 1 3 4 5 5 4 4 5 5 6 6 6 7 7 5 4 4 3 4 3 3 3 2 2 1 2 2 1 2 2 2 2 2 4 3 3 5 5 5 6 6 6 5 5 10 13 15 16 16 16 12 8 10 9 9 9 9 8
6 3 4 5 5 5 5 5 5 5 5 5 6 5 6 6 6 7 5 4 4 4 2 3 3 3 3 3 1 1 1 1 1 1 2 2 3 3 4 4 5 6 5 6 5 6 6 5 11 11 12 12 13 16 10 8 7 7 7 7 7 7
7 7 5 3 5 5 5 6 6 6 5 5 5 5 5 6 6 7 5 5 5 5 4 4 4 3 4 4 3 3 3 2 2 3 2 2 2 1 2 2 3 4 4 4 5 4 6 5 13 14 14 11 12 13 7 7 8 8 7 7 7 6
6 5 4 4 5 6 5 5 5 5 5 5 4 5 5 5 6 6 6 6 5 5 5 5 5 4 4 3 3 3 3 4 3 2 2 3 3 3 3 4 4 4 5 5 5 6 6 6 13 15 15 13 14 10 6 7 6 6 7 6 6 5
3 3 5 5 4 2 4 5 5 6 5 5 5 5 5 5 6 6 5 5 4 5 5 5 6 4 4 3 4 4 3 3 2 3 2 4 4 5 6 4 4 4 5 6 7 9 7 7 13 17 14 15 14 12 8 7 7 6 5 5 5 4
5 4 3 3 5 4 4 5 6 6 5 5 5 5 5 5 6 6 6 6 5 5 5 5 4 4 4 5 5 5 4 4 3 1 2 2 2 2 1 1 2 3 3 4 5 7 7 5 9 15 11 14 13 11 5 6 6 7 6 5 5 4
6 5 6 7 5 6 6 7 6 5 5 5 5 5 5 5 5 5 5 4 4 4 4 3 3 2 3 3 3 3 4 2 2 3 3 1 1 1 1 1 2 4 4 3 4 4 5 5 6 10 12 12 13 10 7 5 8 9 8 6 6 6
7 8 7 5 5 6 6 6 6 5 4 5 4 3 3 2 4 5 5 5 4 3 4 3 3 3 3 3 3 2 2 2 3 3 3 3 2 2 2 4 3 4 3 3 5 5 4 5 7 10 14 13 14 13 11 7 8 8 8 8 8 6
5 4 5 4 5 5 5 6 6 5 5 4 2 2 2 3 4 4 4 4 4 3 3 3 3 3 3 3 3 4 3 2 3 3 3 2 2 4 4 3 1 1 1 0 2 2 2 3 8 7 12 14 14 14 12 7 7 7 9 8 7 6
7 6 6 5 5 5 5 5 5 4 3 4 3 4 4 4 4 4 4 3 3 3 3 3 3 3 3 4 4 5 4 3 4 4 3 3 3 4 4 3 1 2 2 1 2 2 2 2 4 8 8 12 13 14 13 6 2 8 7 9 10 9
7 6 5 5 5 4 3 6 6 4 4 4 4 3 3 4 4 3 3 3 3 3 3 3 3 3 2 3 3 3 4 4 3 3 3 3 3 3 4 2 2 2 3 4 4 3 3 2 3 5 8 9 12 13 14 11 6 10 7 7 6 6
10 8 7 5 6 5 3 3 6 5 4 3 2 2 2 3 3 3 3 3 3 3 2 2 2 2 2 3 3 4 4 4 4 5 3 4 4 5 5 4 4 5 5 4 5 4 4 3 3 3 7 11 11 14 14 14 11 10 11 7 4 6
5 6 7 6 6 5 3 3 4 6 3 3 3 3 3 4 4 4 4 3 3 3 3 3 2 2 2 2 2 3 3 5 5 4 4 4 3 4 5 4 5 5 5 5 5 4 4 4 4 4 5 8 9 10 13 14 12 11 11 8 3 6
6 6 7 6 3 4 3 3 3 3 3 3 3 4 5 5 5 5 4 3 3 3 2 2 2 2 2 2 2 2 2 3 4 4 4 4 4 4 4 5 6 6 5 5 5 4 3 4 5 6 6 7 6 6 8 10 10 12 9 8 5 7
7 7 7 6 6 4 4 4 4 3 3 3 4 5 5 5 4 4 3 3 2 2 2 1 3 2 1 2 2 2 2 3 4 4 5 6 6 6 6 6 6 7 8 7 6 5 3 4 6 8 8 7 7 7 8 9 8 9 9 9 7 5
7 6 7 6 4 4 4 4 3 3 3 3 3 4 5 5 5 5 4 3 2 2 1 0 1 1 0 1 1 2 2 2 3 3 3 3 3 4 5 5 6 6 5 6 6 7 7 7 8 11 9 6 7 7 6 9 8 7 8 8 8 7
7 8 8 5 4 4 4 4 4 3 3 3 2 3 6 6 5 4 3 2 2 2 1 0 0 0 0 0 0 1 2 3 3 3 2 2 3 7 7 5 4 2 2 5 6 5 9 10 6 1 6 6 7 8 6 3 1 2 6 7 14 8
7 8 8 5 3 4 5 5 4 4 3 2 2 3 5 5 4 3 3 2 2 2 1 1 0 0 0 0 1 1 2 2 2 5 6 5 5 5 7 8 7 7 6 4 5 5 9 11 3 5 7 8 8 9 10 9 8 9 10 11 9 7
7 6 6 5 5 5 5 5 5 4 4 3 3 3 4 3 3 3 3 3 2 3 2 1 1 1 0 0 0 0 1 2 4 2 6 9 9 7 7 8 8 7 6 7 8 6 5 6 6 6 8 10 11 12 11 12 11 10 11 13 12 6
7 7 7 6 5 7 6 6 6 6 6 5 4 3 4 3 3 3 3 2 2 2 3 1 1 1 1 0 0 0 0 1 2 4 5 1 7 8 8 8 9 10 10 11 11 11 10 9 6 7 9 11 12 14 14 14 15 15 16 15 12 10
8 7 7 7 9 8 7 7 6 5 5 4 4 4 4 4 4 3 2 2 2 2 2 2 1 1 0 1 0 0 0 0 1 2 3 6 5 1 5 8 11 12 12 13 14 13 13 13 11 8 9 11 13 14 15 16 13 17 20 19 12 10
8 7 7 9 9 9 9 7 6 5 4 4 4 4 4 4 3 3 5 5 2 2 2 2 1 1 1 1 0 0 0 0 1 1 2 3 3 6 8 6 2 7 13 10 10 12 15 14 13 12 12 13 14 15 16 15 10 11 13 14 14 11
9 7 7 9 9 9 9 8 6 4 3 3 3 4 4 3 2 2 2 2 2 2 2 2 2 2 1 1 1 1 1 2 1 1 2 1 2 3 4 4 4 4 3 12 13 13 13 13 15 15 15 14 16 16 16 10 11 10 11 11 11 11
Wind_Direction
218 220 200 167 172 182 193 183 185 202 213 214 212 206 208 209 209 213 215 225 221 226 229 225 225 228 233 234 236 240 231 220 211 210 209 194 199 193 173 188 182 186 187 182 175 168 165 154 158 155 155 166 171 167 165 161 161 144 138 149 156 156
229 201 179 177 177 176 176 180 177 206 220 215 229 252 229 203 201 191 198 217 233 233 242 238 235 233 234 237 234 232 230 222 216 214 211 202 192 192 183 186 187 183 182 179 174 169 158 153 151 160 165 175 173 162 153 163 145 135 141 137 133 138
188 176 166 123 94 75 78 105 149 118 123 162 194 211 208 213 224 208 197 208 216 223 224 221 216 219 217 226 225 228 226 217 197 204 203 187 200 187 190 192 187 181 177 170 165 159 158 158 164 171 169 169 152 143 145 140 149 148 146 144 147 151
202 142 116 93 112 136 165 173 183 192 192 192 175 195 204 201 204 221 220 220 225 222 223 225 228 223 222 222 222 220 218 220 208 204 200 205 198 189 192 189 184 178 175 174 171 172 172 175 177 164 156 155 153 149 144 157 164 158 151 152 155 163
209 157 161 173 183 179 172 169 183 185 190 193 203 211 218 220 221 214 215 220 225 229 230 228 229 228 223 223 219 218 216 214 208 195 201 198 190 191 190 187 182 180 180 182 180 176 179 174 170 163 157 159 162 161 165 173 173 168 160 163 165 164
179 208 211 203 192 190 184 177 172 182 202 209 207 212 218 220 226 230 232 233 235 232 226 227 230 230 225 223 221 219 214 210 207 196 200 192 182 187 193 188 183 182 182 181 182 182 175 162 170 169 168 166 166 169 170 170 172 169 164 166 163 160
210 216 214 205 194 182 177 175 177 185 202 208 213 219 213 213 218 227 234 238 243 242 241 239 235 235 238 236 230 227 217 210 199 193 194 180 186 190 182 187 180 179 177 184 186 180 177 175 175 174 166 160 166 169 165 163 166 163 163 162 159 157
210 210 206 201 194 180 174 174 175 191 202 213 215 216 213 216 216 221 231 236 238 242 240 242 240 238 239 241 239 232 222 211 203 199 199 186 188 184 182 177 177 179 185 183 182 190 185 170 172 173 161 153 153 153 152 154 154 151 148 144 146 153
225 218 208 199 189 180 177 179 189 195 201 214 218 218 218 217 211 215 224 231 238 240 238 240 242 238 239 237 236 224 213 216 216 200 204 200 188 176 176 177 174 185 180 181 176 177 177 171 159 158 158 151 151 148 146 144 137 133 130 132 136 133
231 213 202 189 187 177 185 197 200 198 195 204 206 213 218 218 215 216 218 220 225 232 237 237 245 265 309 347 25 51 119 83 125 188 133 150 169 180 180 177 181 182 181 180 180 175 162 170 163 153 152 150 146 144 146 146 139 130 122 122 129 135
220 213 198 184 174 189 201 201 208 205 200 197 194 195 213 214 210 213 218 217 226 229 232 231 209 56 69 93 118 136 150 148 140 132 146 164 173 172 177 166 162 155 162 152 160 155 150 163 174 162 156 149 144 145 144 141 137 140 142 141 139 139
203 196 172 177 197 201 203 205 203 204 196 193 192 193 205 205 210 211 212 217 226 229 209 156 149 168 160 169 169 179 158 156 154 153 159 169 163 156 152 152 153 164 166 159 153 156 160 167 175 183 169 160 155 154 150 147 149 151 152 151 147 145
183 160 182 202 204 206 208 199 195 193 200 195 185 189 195 203 212 209 213 221 219 215 190 171 165 153 184 182 161 150 162 166 163 164 155 147 142 146 152 147 156 166 163 164 164 167 174 178 175 177 171 164 158 154 154 154 154 155 156 159 159 157
192 183 205 215 195 186 193 193 195 187 205 189 187 180 182 204 217 218 215 218 210 209 197 184 164 176 190 170 179 170 175 152 152 158 154 148 155 159 151 166 173 167 164 161 165 174 182 188 173 174 168 164 163 162 158 156 156 159 161 161 160 157
216 222 240 261 209 154 177 183 188 198 195 185 179 156 172 210 217 221 219 194 193 196 190 186 179 190 193 198 186 166 138 159 161 161 168 180 167 149 171 181 164 169 165 165 170 177 174 179 168 171 168 169 167 163 158 159 156 157 163 165 162 158
233 224 226 229 166 169 163 173 184 179 165 165 157 163 177 200 214 220 211 180 192 190 192 190 187 193 188 154 140 139 168 186 204 184 148 123 127 165 168 159 170 161 168 171 169 167 169 169 172 168 170 171 169 165 161 160 159 159 162 163 162 162
218 200 209 207 193 161 159 175 177 151 145 161 164 169 175 194 207 217 208 188 190 185 174 173 181 190 167 152 142 143 169 188 199 169 171 165 176 180 181 175 176 177 173 172 167 168 177 176 172 165 167 168 164 165 155 156 156 155 155 155 158 163
213 212 217 150 145 174 183 170 157 150 157 156 170 168 177 186 203 209 203 191 184 181 174 172 180 174 165 157 164 173 186 187 188 184 179 170 178 150 139 146 163 172 180 178 168 167 179 166 176 179 176 164 161 158 158 160 159 158 152 154 156 156
184 185 151 157 179 175 171 138 134 140 141 152 167 164 171 190 204 207 201 195 183 176 173 176 172 170 164 162 168 183 190 190 189 176 163 173 182 172 183 186 184 180 178 180 183 181 182 165 181 184 180 170 166 161 166 163 161 155 152 153 147 146
132 138 169 173 179 155 121 130 139 144 147 158 161 163 170 193 212 211 208 196 181 176 174 174 175 172 171 163 183 190 196 192 190 184 180 191 185 191 196 189 185 184 188 189 194 192 187 186 182 183 176 176 173 175 166 168 162 151 146 132 129 129
164 154 152 165 190 160 136 138 144 148 156 161 161 166 182 194 203 205 207 203 182 179 175 175 178 176 177 186 193 186 188 190 192 148 159 205 200 205 155 164 173 195 205 207 207 201 195 182 182 185 177 178 174 176 167 166 154 153 156 144 144 140
134 155 182 193 191 137 148 147 152 160 158 158 153 177 198 191 191 198 202 199 185 166 161 159 165 170 177 196 189 184 193 148 133 157 180 169 151 162 174 145 185 197 209 194 200 199 195 169 172 185 177 181 176 178 174 170 164 173 164 159 159 155
179 187 186 179 148 138 150 149 147 151 151 139 152 191 192 164 163 173 187 195 178 158 168 164 162 176 179 175 170 155 127 163 163 160 178 181 177 173 182 203 208 204 203 191 196 194 200 180 176 183 185 182 183 185 186 185 187 175 166 167 165 172
156 129 115 111 126 132 137 142 144 140 129 134 155 136 129 137 151 160 167 173 173 176 166 161 140 157 167 150 146 155 156 140 137 161 168 182 184 190 204 192 212 202 216 141 193 206 201 171 178 177 188 186 189 193 198 194 194 173 172 164 173 173
160 161 141 125 127 128 133 137 138 121 124 144 140 136 137 146 145 147 155 154 155 153 146 143 146 157 153 157 160 162 158 132 144 147 158 181 166 183 196 189 180 173 199 205 208 216 207 183 181 180 190 194 195 198 205 210 154 155 175 176 184 188
147 132 117 117 111 112 115 135 136 141 149 149 135 131 130 138 139 136 132 134 126 121 134 140 142 149 161 159 153 136 139 144 146 155 177 172 169 181 190 193 183 192 205 206 213 207 197 188 180 183 189 196 198 201 206 210 197 176 188 191 197 186
157 137 113 100 96 94 104 123 139 143 144 124 115 124 122 108 101 108 107 105 107 112 102 113 135 139 133 144 155 169 172 151 157 185 191 175 188 194 204 201 183 203 212 206 218 206 191 185 180 179 191 196 200 205 207 209 204 192 187 194 200 179
115 124 116 92 92 94 104 104 127 133 138 117 116 112 106 107 107 101 98 98 102 101 110 119 107 116 126 153 180 192 182 187 186 191 184 185 190 194 200 204 200 210 212 216 214 205 193 184 186 188 188 197 203 207 209 208 203 197 199 194 163 159
136 133 124 113 108 105 109 104 89 87 90 101 103 102 114 111 111 106 102 103 105 99 110 135 162 156 142 184 189 198 193 185 191 194 192 186 196 198 202 204 210 213 212 217 211 205 181 189 197 202 195 191 191 198 201 204 205 202 194 197 178 171
146 138 130 116 113 114 113 111 99 84 84 90 96 113 111 108 105 109 100 101 102 113 130 161 110 128 166 181 196 203 204 192 196 205 204 195 194 199 204 209 212 217 215 218 212 206 195 201 209 210 205 192 184 194 202 200 196 197 198 198 190 170
134 130 121 112 114 115 111 99 94 83 87 95 109 124 118 110 96 90 93 95 99 86 107 150 122 204 210 171 202 241 239 219 212 222 244 226 214 212 211 216 232 228 225 216 218 215 220 221 222 224 210 201 182 187 179 191 200 195 203 202 167 146
125 125 120 113 121 115 106 97 83 70 64 76 92 115 112 112 105 97 92 88 88 88 89 85 87 116 325 338 257 271 288 356 1 325 290 279 236 249 270 279 266 282 228 237 241 223 229 231 246 125 146 184 183 203 209 219 291 158 204 187 172 161
101 97 99 94 90 76 80 75 65 63 56 61 68 96 108 109 109 104 109 112 103 82 86 91 87 95 349 354 340 324 313 301 242 225 261 279 319 321 273 272 285 305 302 285 270 264 259 268 269 148 188 189 195 205 213 217 223 214 206 178 162 179
86 78 86 80 74 72 71 66 49 44 32 27 37 65 91 90 96 108 104 106 105 107 127 107 114 98 137 227 101 301 318 305 307 293 205 227 243 245 267 274 270 270 264 268 267 271 281 256 224 176 181 198 202 211 214 218 213 204 189 186 186 197
85 82 77 75 72 74 67 58 39 24 19 11 18 42 80 74 70 84 93 103 118 121 128 147 136 149 147 168 186 293 281 294 312 311 320 195 215 249 261 264 270 269 270 263 260 256 253 263 254 200 196 198 206 211 217 220 221 218 215 203 206 214
87 79 78 74 73 71 61 57 29 19 3 7 18 38 60 66 66 71 81 100 106 117 121 126 120 118 108 97 78 65 316 324 306 319 326 319 320 250 232 247 254 260 264 265 262 260 259 257 252 232 211 207 209 213 216 219 225 225 221 214 214 211
87 80 78 89 85 77 67 55 28 7 8 19 38 67 76 75 75 102 95 81 60 97 93 90 98 85 83 59 82 38 32 303 333 317 316 314 315 312 316 326 286 231 234 247 258 258 256 255 254 241 226 217 214 216 218 221 227 226 229 226 227 219
78 77 81 82 82 78 70 54 29 6 9 20 49 83 87 94 94 97 103 126 124 108 107 111 98 89 77 64 40 25 16 348 353 319 311 294 281 286 293 298 290 310 236 232 241 248 255 255 251 245 234 226 220 217 211 220 227 228 227 227 230 228